Temperature
16 16 16 16 17 17 17 17 17 17 17 16 16 16 16 16 16 15 15 15 15 15 15 14 14 14 14 13 13 13 13 12 12 12 12 12 11 11
16 16 16 16 16 16 17 16 16 16 16 16 16 16 16 15 15 15 15 15 15 14 14 14 14 13 13 13 13 12 12 12 12 11 11 11 11 11
16 16 16 16 16 16 16 16 16 16 16 16 15 15 15 15 15 14 14 14 14 14 14 13 13 13 13 12 12 12 11 11 11 11 10 10 10 10
15 15 15 15 15 16 16 16 16 15 15 15 15 15 14 14 14 14 13 13 13 13 13 13 12 12 12 12 11 11 11 10 10 10 10 9 9 9
15 15 15 15 15 15 15 15 15 15 15 15 14 14 14 13 13 13 13 12 12 12 12 12 12 11 11 11 10 10 10 9 9 9 9 9 9 8
15 15 15 15 15 15 15 15 14 14 14 14 14 13 13 13 13 12 12 12 11 11 11 11 11 10 10 10 10 9 9 9 9 8 8 8 8 8
14 14 14 14 14 14 14 14 14 14 13 13 13 13 12 12 12 12 11 11 11 10 10 10 10 9 9 9 9 9 8 8 8 7 7 7 7 7
14 14 14 14 14 14 14 13 13 13 13 13 12 12 12 12 11 11 11 11 10 9 9 9 9 8 8 8 8 8 7 7 7 7 6 6 6 6
14 14 13 13 13 13 13 13 13 12 12 12 12 12 11 11 11 11 10 10 10 9 9 8 8 8 7 7 7 7 6 6 6 6 6 6 5 5
13 13 13 13 13 12 12 12 12 12 11 11 11 11 11 11 10 10 10 9 9 8 8 8 7 7 7 6 6 6 6 5 5 5 5 5 5 5
13 12 12 12 12 12 12 11 11 11 11 11 10 10 10 10 10 9 9 9 8 8 7 7 7 6 6 6 6 5 5 5 5 5 5 4 4 4
12 12 12 12 12 11 11 11 11 10 10 10 10 9 9 9 9 8 8 9 8 7 7 6 7 6 7 6 6 5 5 5 5 4 4 4 4 4
12 11 11 11 11 11 10 10 10 9 9 9 9 8 8 8 8 7 7 7 7 7 6 6 6 6 6 6 6 5 5 5 5 4 4 4 4 3
11 11 10 10 10 10 10 9 9 9 9 8 8 8 7 7 7 6 6 6 6 6 6 5 5 5 6 6 6 5 5 5 4 4 4 4 4 3
10 10 10 10 9 9 9 9 8 8 8 8 8 7 7 6 6 6 6 6 5 5 5 5 5 5 5 5 5 5 5 5 5 4 4 4 4 4
10 9 9 9 9 8 8 8 7 7 7 7 7 6 6 6 6 6 6 6 6 5 5 4 4 4 5 5 5 5 5 5 5 4 4 4 4 4
9 9 8 8 8 7 7 7 7 7 7 6 6 6 6 6 5 5 5 5 6 5 5 5 4 4 4 4 5 5 5 5 4 4 4 4 4 4
9 9 8 8 8 8 7 7 6 6 6 6 6 6 6 6 5 5 5 5 5 5 5 5 5 5 5 5 5 4 5 4 4 4 4 4 4 4
8 8 8 8 7 7 7 7 6 6 5 5 5 5 5 5 5 5 5 5 5 5 5 5 5 5 6 6 5 4 4 4 4 4 4 4 4 4
8 8 7 7 7 6 6 6 6 5 5 5 5 5 5 5 5 5 5 5 5 5 5 5 5 4 5 5 5 5 4 4 4 4 4 4 4 4
7 7 7 6 6 6 5 5 5 5 5 5 5 4 5 5 5 5 5 4 5 5 5 5 4 4 4 4 5 5 5 4 3 3 3 3 4 4
7 6 6 6 5 5 5 5 5 4 4 4 4 4 4 5 4 4 5 5 5 5 5 5 4 4 4 5 5 5 5 4 4 4 4 3 3 3
6 6 5 5 5 5 5 4 4 4 4 4 4 4 4 4 4 4 4 5 5 5 5 5 5 5 5 5 5 5 5 5 5 5 4 4 4 3
Wind_Speed
9 9 8 7 7 7 6 7 7 7 5 5 4 3 3 4 5 5 6 8 9 9 9 8 7 7 7 7 6 6 5 4 4 3 2 2 3 3
6 7 7 7 6 6 6 6 6 6 5 3 2 2 3 5 6 6 8 11 10 10 9 8 8 8 7 7 6 6 6 4 3 2 2 2 2 3
6 7 7 6 5 6 5 5 5 5 5 4 2 3 3 4 5 6 7 7 8 9 9 8 7 7 7 7 6 6 5 4 3 3 3 3 4 4
6 6 6 5 6 6 5 5 5 4 5 5 3 3 3 3 4 4 5 6 7 9 10 10 9 8 7 7 7 6 5 5 4 3 3 3 4 5
5 5 6 6 6 6 5 5 4 4 4 4 4 3 2 3 4 4 4 4 5 8 10 10 10 9 8 7 7 6 5 5 4 4 3 4 5 5
4 4 4 5 5 5 5 4 4 3 4 4 4 4 3 3 4 4 3 3 3 5 7 8 10 10 9 8 7 7 6 5 4 4 4 4 4 5
2 2 2 1 1 2 3 3 4 4 4 4 4 4 4 4 4 3 4 4 3 3 4 5 6 6 7 7 8 7 7 6 6 5 5 5 5 5
3 2 2 2 4 6 6 6 4 3 4 3 3 4 3 3 3 3 4 3 2 2 2 3 4 4 4 6 9 8 7 6 6 5 5 5 6 6
2 2 2 3 5 6 8 9 8 8 5 3 4 4 4 3 4 4 4 3 3 3 2 3 2 3 4 8 9 7 7 6 5 4 5 6 7 8
3 3 4 4 4 6 8 8 8 7 6 5 5 4 4 4 4 5 6 6 5 3 1 2 2 2 2 4 8 6 4 3 3 4 5 7 8 10
5 5 5 6 6 8 9 10 9 8 13 16 15 14 13 11 7 6 6 5 5 4 1 1 2 1 1 2 4 6 3 2 1 3 4 6 9 11
5 6 7 7 7 6 9 10 10 9 9 11 12 11 12 11 9 5 4 4 4 3 2 0 1 0 0 0 1 0 1 3 4 4 4 4 7 9
5 5 6 10 9 7 7 8 9 9 9 9 9 8 8 7 7 8 6 4 3 3 3 0 1 1 1 1 1 2 3 4 4 3 4 4 6 8
6 6 7 10 10 9 8 9 9 7 7 7 7 7 7 7 7 8 9 9 8 7 5 3 1 1 2 2 2 2 3 4 5 5 6 5 7 8
7 10 10 10 11 10 10 9 7 6 7 7 7 6 6 6 6 6 7 8 8 7 6 4 2 2 2 2 2 3 3 3 4 6 7 7 7 7
10 12 12 9 8 10 9 7 5 6 5 6 6 6 6 5 5 4 4 3 4 5 5 3 2 2 2 2 3 3 4 4 5 6 8 8 7 7
9 8 8 7 7 7 7 6 6 6 5 5 5 5 5 5 4 4 3 2 3 3 3 2 1 0 2 4 4 4 5 5 6 6 7 8 6 7
7 8 7 6 6 7 6 6 6 5 5 5 4 4 4 4 4 3 2 2 2 2 2 2 2 1 2 1 2 5 6 6 7 6 8 8 8 7
6 7 6 6 6 5 5 5 5 5 4 4 4 4 4 3 3 3 2 1 2 2 2 2 3 4 4 3 1 1 6 7 8 7 7 8 8 8
5 6 6 6 5 5 5 5 5 5 4 4 4 3 3 3 3 2 1 1 1 1 1 2 3 4 5 6 5 3 2 6 7 8 8 9 8 8
5 5 5 5 5 5 5 4 4 4 4 3 3 3 2 2 2 2 2 1 2 1 1 2 3 4 5 5 5 4 4 2 5 7 9 9 10 9
5 5 5 5 5 5 4 4 4 4 4 3 3 3 2 2 2 2 1 1 1 1 2 2 1 4 4 6 7 6 6 6 7 11 10 8 8 10
5 5 5 5 5 4 4 5 5 4 4 3 3 3 3 2 2 2 1 2 1 2 3 3 3 4 5 6 7 7 8 9 8 7 6 9 14 17
Wind_Direction
237 236 241 242 243 248 248 242 243 243 232 208 211 179 168 131 130 143 132 128 136 139 141 143 143 142 139 139 136 129 121 117 114 103 79 47 26 7
241 244 241 241 239 238 240 243 244 245 249 230 201 169 138 137 129 132 123 117 117 125 128 132 135 135 133 132 132 128 120 109 106 96 76 44 16 357
236 234 237 247 245 241 234 236 240 238 236 234 205 140 139 149 133 134 133 128 117 122 128 128 129 128 126 120 114 111 108 99 89 79 59 35 15 2
233 234 238 237 236 243 237 236 238 238 228 220 206 180 164 152 140 143 137 132 123 118 120 118 118 118 117 116 112 107 104 98 90 75 55 33 12 2
229 229 236 235 231 232 229 233 232 228 218 210 194 167 165 148 136 134 121 117 123 120 114 111 110 108 106 106 106 103 95 86 79 72 59 40 22 13
228 230 235 232 225 222 217 222 226 222 200 190 184 176 165 164 160 158 149 141 124 115 103 105 107 108 109 109 109 104 96 84 73 64 56 43 32 18
210 219 217 190 163 182 197 197 200 200 194 187 183 179 176 169 180 184 165 143 112 118 125 119 115 104 102 110 104 95 89 79 69 60 48 35 20 4
186 194 184 156 123 107 93 83 89 154 178 181 179 172 173 181 175 173 159 156 152 128 132 101 93 84 81 79 84 81 74 69 61 46 27 7 354 345
150 160 158 133 134 132 112 100 84 75 83 136 158 167 163 168 172 164 155 155 119 127 131 113 108 98 91 87 96 88 76 64 45 19 356 342 336 330
100 118 125 115 122 128 123 111 96 81 81 96 110 104 109 125 147 141 132 120 113 105 125 118 106 93 99 104 116 110 93 66 33 360 343 336 330 320
91 90 106 115 115 130 127 117 106 92 76 79 82 85 84 84 94 117 125 126 119 112 91 105 107 92 128 140 134 152 167 175 274 308 314 320 322 313
106 98 88 101 111 121 129 126 118 111 108 100 93 92 90 86 77 78 110 126 125 115 87 37 109 285 221 82 359 257 224 201 222 242 260 286 312 316
122 114 102 104 104 98 110 117 123 125 118 111 104 97 91 85 78 68 52 48 78 88 93 63 30 336 306 305 320 333 333 333 318 296 252 251 287 305
122 117 110 109 104 99 102 108 121 128 116 110 103 98 93 87 78 73 67 63 63 76 71 40 34 347 315 322 333 333 322 314 315 321 323 293 265 256
103 101 111 119 117 103 104 115 127 119 112 107 102 96 92 91 96 98 94 90 87 82 76 45 19 9 324 331 329 321 320 323 327 328 325 321 319 313
112 115 116 109 106 107 118 114 100 95 103 106 107 105 108 108 104 101 106 112 107 102 93 73 39 348 330 340 326 333 334 329 330 336 330 317 315 321
133 130 128 128 123 119 115 109 109 112 110 111 112 113 112 106 101 97 92 97 87 87 96 100 101 334 326 323 334 341 333 332 338 343 317 314 323 328
142 133 135 136 132 129 126 119 114 111 110 109 109 112 115 115 110 101 88 79 77 70 55 36 360 298 240 129 17 338 333 334 333 326 313 320 325 331
140 132 133 132 130 126 123 119 117 114 112 117 118 122 120 118 114 110 103 94 77 61 45 20 356 341 329 347 65 327 330 328 325 324 326 324 322 324
133 131 132 132 129 124 121 119 119 122 124 125 128 129 128 131 130 133 120 63 58 36 28 17 5 350 340 334 326 316 271 325 330 326 325 321 317 310
132 128 126 125 123 121 119 123 128 130 129 136 137 141 151 155 148 152 138 139 279 305 323 17 23 306 294 302 307 329 339 260 278 303 317 321 325 323
128 126 121 120 122 125 129 135 139 141 148 158 153 161 161 162 165 189 198 212 255 306 322 351 325 292 301 314 317 324 326 321 269 240 249 273 316 323
129 130 132 135 137 142 142 148 153 152 157 163 164 172 175 179 197 210 225 253 273 302 302 310 312 308 314 316 317 323 326 322 320 314 291 236 238 251
Height
1568 1570 1571 1572 1573 1574 1575 1575 1577 1576 1577 1577 1578 1578 1579 1579 1580 1580 1581 1581 1582 1582 1583 1583 1583 1583 1583 1582 1582 1582 1581 1581 1581 1580 1579 1579 1578 1577
1564 1565 1566 1567 1568 1569 1570 1571 1572 1573 1573 1574 1575 1575 1576 1576 1577 1577 1578 1578 1578 1579 1579 1579 1579 1579 1579 1579 1579 1579 1578 1578 1577 1577 1576 1575 1574 1573
1559 1560 1561 1563 1564 1565 1566 1566 1568 1569 1569 1570 1571 1571 1572 1573 1573 1574 1575 1575 1575 1576 1576 1576 1576 1576 1576 1576 1575 1575 1575 1574 1574 1573 1572 1571 1570 1569
1555 1556 1557 1558 1559 1560 1561 1562 1563 1564 1565 1566 1566 1567 1568 1569 1569 1570 1571 1572 1572 1572 1572 1572 1573 1572 1572 1572 1572 1571 1571 1571 1570 1569 1568 1567 1566 1565
1550 1552 1552 1553 1554 1555 1556 1557 1559 1560 1561 1561 1562 1562 1564 1565 1565 1566 1568 1568 1569 1569 1569 1569 1569 1569 1568 1568 1568 1567 1567 1567 1566 1566 1565 1564 1563 1562
1547 1548 1548 1549 1549 1550 1551 1553 1554 1555 1556 1557 1558 1559 1560 1561 1562 1563 1564 1565 1566 1566 1566 1566 1566 1565 1565 1565 1565 1564 1563 1563 1562 1562 1561 1560 1559 1557
1543 1544 1544 1545 1546 1547 1548 1549 1550 1551 1552 1553 1554 1556 1557 1558 1559 1560 1561 1562 1563 1563 1563 1564 1563 1563 1562 1562 1561 1561 1560 1559 1559 1558 1557 1556 1555 1554
1540 1540 1541 1542 1543 1544 1544 1546 1547 1548 1549 1551 1552 1553 1554 1555 1557 1558 1559 1560 1560 1561 1561 1561 1561 1561 1560 1560 1558 1558 1557 1556 1555 1554 1554 1553 1552 1550
1537 1538 1538 1539 1540 1541 1542 1543 1544 1545 1547 1548 1549 1550 1551 1552 1554 1555 1556 1557 1557 1558 1558 1558 1559 1559 1559 1557 1556 1556 1555 1554 1553 1552 1551 1550 1548 1547
1535 1536 1537 1538 1538 1539 1540 1541 1542 1543 1545 1545 1546 1547 1548 1549 1551 1552 1553 1553 1554 1556 1556 1558 1558 1557 1557 1557 1555 1555 1554 1553 1552 1551 1549 1548 1546 1544
1534 1535 1536 1536 1537 1538 1539 1540 1541 1542 1544 1544 1545 1545 1546 1547 1548 1550 1551 1553 1554 1555 1556 1556 1557 1557 1557 1557 1556 1554 1553 1552 1550 1549 1548 1546 1544 1541
1534 1535 1535 1535 1536 1537 1538 1539 1540 1542 1543 1544 1544 1545 1546 1547 1548 1549 1551 1553 1554 1555 1555 1555 1556 1556 1557 1557 1556 1555 1553 1551 1549 1548 1546 1544 1542 1540
1534 1534 1535 1535 1536 1537 1538 1539 1540 1542 1543 1544 1545 1546 1547 1548 1549 1550 1551 1553 1554 1554 1555 1555 1556 1556 1556 1556 1555 1554 1553 1552 1550 1548 1546 1543 1541 1539
1534 1535 1535 1536 1537 1538 1539 1540 1541 1543 1545 1546 1546 1548 1549 1550 1550 1551 1551 1552 1552 1553 1553 1554 1555 1555 1555 1554 1554 1554 1552 1551 1549 1548 1546 1543 1540 1538
1534 1535 1535 1537 1538 1539 1540 1541 1543 1544 1546 1546 1548 1549 1550 1550 1551 1552 1553 1553 1553 1554 1554 1553 1554 1554 1554 1554 1554 1553 1552 1550 1549 1547 1544 1542 1540 1538
1534 1535 1536 1537 1538 1539 1540 1542 1543 1545 1546 1547 1548 1550 1551 1552 1553 1554 1555 1555 1556 1555 1555 1554 1553 1554 1554 1554 1553 1552 1551 1550 1548 1545 1542 1540 1538 1536
1534 1536 1537 1538 1539 1540 1541 1542 1544 1546 1547 1548 1550 1551 1552 1553 1554 1555 1555 1556 1557 1557 1557 1556 1555 1554 1553 1553 1553 1552 1550 1549 1546 1543 1540 1539 1537 1534
1534 1535 1537 1538 1539 1540 1542 1543 1545 1546 1548 1549 1551 1552 1553 1554 1555 1556 1556 1557 1557 1557 1557 1557 1556 1555 1554 1553 1552 1551 1549 1547 1545 1542 1540 1537 1535 1533
1534 1535 1536 1538 1539 1540 1542 1543 1545 1546 1548 1550 1551 1553 1554 1555 1556 1556 1557 1557 1558 1558 1557 1557 1556 1555 1554 1553 1551 1549 1548 1546 1544 1541 1539 1536 1533 1530
1534 1535 1536 1537 1539 1541 1542 1543 1545 1547 1548 1550 1551 1553 1554 1555 1556 1557 1557 1557 1558 1558 1557 1557 1556 1555 1554 1553 1551 1549 1546 1544 1542 1539 1537 1534 1531 1528
1533 1535 1536 1538 1539 1540 1542 1543 1545 1547 1549 1551 1552 1553 1554 1555 1556 1557 1557 1557 1557 1557 1557 1556 1555 1553 1552 1551 1550 1548 1546 1543 1540 1537 1535 1532 1529 1525
1533 1535 1536 1537 1539 1540 1542 1544 1546 1547 1549 1551 1552 1554 1555 1556 1556 1557 1557 1557 1557 1557 1557 1556 1554 1553 1552 1551 1549 1546 1544 1542 1538 1535 1532 1530 1528 1524
1534 1535 1536 1538 1539 1541 1543 1544 1546 1548 1550 1551 1552 1553 1555 1555 1556 1556 1556 1556 1556 1556 1555 1555 1554 1552 1551 1549 1547 1545 1542 1539 1537 1534 1531 1528 1525 1521